Temperature
19 18 18 18 18 20 20 20 20 21 22 22 22 21 22 22 22 22 22 23 21 21 21 22 22 22 22 22 21 20 20 19 19 18 18 18 17 17 17 17 16 16 16 16
18 18 19 20 20 20 20 20 20 21 21 21 21 21 21 21 21 23 23 22 20 20 22 23 23 23 22 21 20 19 19 19 19 18 18 18 17 17 17 17 16 16 16 16
18 20 21 21 20 20 21 20 21 20 21 21 21 20 21 22 22 23 22 22 20 21 22 22 22 21 21 20 20 19 18 18 18 18 18 17 17 17 17 17 16 16 16 16
17 19 19 21 21 22 20 22 22 21 20 19 20 18 20 19 19 19 19 19 20 20 21 22 21 20 20 20 20 19 18 18 18 17 17 17 17 17 17 17 16 16 16 16
18 19 19 19 20 22 21 22 20 20 19 19 19 18 19 18 19 19 18 19 20 20 21 21 21 20 20 20 19 19 18 17 17 17 17 17 17 16 16 16 16 16 16 16
19 20 20 20 21 21 22 21 19 16 17 17 18 19 18 18 21 20 18 19 19 20 21 21 20 20 20 19 19 18 18 17 17 17 17 16 16 16 16 15 15 15 15 16
18 19 20 21 20 21 21 20 18 18 18 18 17 17 19 20 20 19 19 20 20 21 21 21 21 21 20 20 19 19 18 17 17 17 16 16 16 15 15 15 15 15 15 15
16 16 19 20 21 20 19 18 17 17 17 17 18 17 20 20 20 20 20 21 21 21 21 22 22 21 21 20 19 18 18 17 17 16 16 16 15 15 15 15 15 15 15 15
17 17 19 21 21 21 17 18 19 18 17 16 18 19 21 20 21 21 20 21 21 22 22 23 22 22 21 20 19 18 18 17 17 17 16 15 15 15 15 15 15 14 14 14
16 15 18 19 21 20 18 19 15 17 16 16 17 17 18 20 20 20 19 19 21 22 22 23 23 22 21 20 19 18 17 17 17 17 16 15 15 15 15 15 15 15 14 14
14 15 16 17 17 16 17 17 16 15 15 16 16 17 17 18 18 18 18 20 21 22 22 23 22 22 21 20 19 18 17 17 17 17 16 16 15 15 15 15 15 15 15 15
14 13 14 15 15 16 15 14 14 15 15 13 14 15 17 17 17 18 19 20 21 21 22 22 22 21 21 20 19 18 17 17 17 16 16 16 15 15 15 15 15 15 15 15
15 14 14 15 15 15 15 15 14 14 14 14 15 15 18 17 18 20 20 20 21 22 22 22 22 22 21 20 20 19 18 18 17 16 16 16 15 15 15 15 14 14 14 15
15 14 14 15 15 15 15 16 15 14 13 15 14 16 17 18 18 19 20 21 21 23 22 22 22 22 22 21 20 19 19 18 17 17 16 16 16 15 15 14 14 13 14 14
13 14 14 14 15 15 15 16 15 14 15 14 16 16 17 18 17 19 20 21 21 22 22 22 22 22 22 21 20 20 19 19 18 17 17 17 17 16 15 15 15 14 14 14
13 14 14 14 15 15 15 16 15 15 15 14 15 16 18 18 18 18 20 19 21 22 22 21 21 22 22 21 21 19 19 19 18 18 18 17 17 16 16 16 16 16 15 15
13 13 13 13 14 14 14 15 15 15 15 16 15 16 16 15 16 17 20 20 20 21 21 21 20 21 21 20 20 19 19 18 18 18 18 17 17 17 17 16 16 16 16 16
12 12 13 13 13 13 17 16 16 16 16 16 15 15 16 16 18 19 20 20 20 21 21 21 21 20 20 19 19 18 18 18 18 18 18 17 17 17 17 16 16 16 16 15
10 12 12 11 12 14 16 16 15 15 16 17 15 15 16 17 18 19 20 20 20 20 20 19 19 19 19 18 18 18 17 17 18 17 17 17 17 17 16 16 16 15 15 15
11 12 12 12 12 13 15 16 16 15 15 16 14 14 15 17 17 17 19 19 19 19 19 18 18 18 18 17 17 16 16 16 16 16 16 16 16 16 16 15 15 15 15 14
12 12 11 12 12 14 14 15 16 14 14 14 14 13 14 15 16 17 18 18 18 18 18 18 17 17 17 16 15 15 14 14 14 14 14 14 15 15 15 15 15 14 14 14
12 11 12 12 13 11 14 13 13 13 13 13 13 14 15 17 17 16 16 16 17 17 17 17 16 16 15 14 14 14 14 13 13 13 13 12 12 13 13 13 13 13 13 12
10 11 9 11 12 12 13 14 14 13 13 13 13 14 15 17 16 15 16 16 16 16 16 16 15 15 14 13 13 13 12 12 12 11 11 12 12 12 12 12 12 12 12 12
10 11 9 10 11 11 12 13 13 13 13 13 13 13 15 16 17 16 16 16 16 16 15 15 14 14 13 13 13 13 12 12 11 11 11 11 11 11 11 10 10 11 12 12
9 9 9 10 12 13 14 14 13 13 13 13 14 14 15 15 17 16 16 17 16 16 15 14 14 14 13 13 13 13 12 12 11 11 11 11 10 11 11 11 11 11 11 11
10 9 9 10 11 11 12 12 12 12 12 13 14 15 16 16 18 17 16 17 17 16 16 15 14 14 14 14 13 13 13 12 11 11 11 11 11 11 11 11 11 11 11 11
Wind_Speed
2 1 5 7 4 1 2 3 4 7 7 3 7 8 13 6 6 8 8 8 7 6 2 1 1 1 4 6 7 7 6 5 5 3 3 3 2 2 2 3 3 4 8 10
1 6 8 5 4 4 3 4 6 9 8 7 8 7 10 7 6 8 10 11 9 6 3 3 3 2 4 7 8 7 6 5 4 3 2 2 2 2 1 2 2 5 8 10
8 7 5 6 6 6 6 5 6 7 6 2 2 5 6 5 4 3 4 6 8 8 7 5 3 3 5 6 7 5 5 4 4 4 3 2 3 3 2 2 2 3 7 9
7 7 6 10 10 9 7 6 6 10 7 5 0 5 6 5 8 6 4 8 10 9 7 5 5 6 7 6 6 5 5 5 4 5 5 5 4 4 3 3 4 5 8 7
5 4 4 7 7 2 5 6 6 7 5 4 1 3 6 3 7 7 7 9 10 9 8 7 8 7 5 3 4 5 5 6 5 5 6 6 4 4 4 3 5 6 5 6
6 4 5 6 5 3 3 3 3 4 2 3 5 6 6 4 6 5 6 9 9 9 8 8 7 6 5 3 3 4 5 5 5 6 6 6 6 5 5 5 6 6 6 8
7 6 4 4 4 4 4 1 3 4 1 5 3 2 7 7 6 6 8 10 9 9 9 9 9 9 8 7 6 5 5 4 5 6 6 6 6 7 7 7 7 8 6 6
4 7 3 1 4 6 5 8 7 5 4 4 1 5 6 5 5 2 5 6 8 10 10 11 12 11 9 8 7 6 6 4 3 5 6 4 6 6 5 5 5 5 5 7
1 6 7 7 5 4 2 5 8 6 2 2 4 5 7 2 1 2 4 6 9 11 12 12 10 9 9 9 8 8 6 5 4 5 4 4 5 5 5 5 5 4 5 6
2 5 7 7 6 5 2 2 3 2 5 3 4 4 5 4 4 2 2 5 9 10 11 10 8 8 9 9 8 7 7 7 4 4 3 4 5 5 5 7 7 7 5 5
2 1 7 5 3 3 4 3 3 3 2 3 2 6 6 4 4 5 6 7 8 8 9 9 7 7 9 8 8 8 7 6 5 5 4 4 4 4 4 5 6 5 5 6
1 1 4 7 6 4 4 2 2 3 1 2 1 8 5 4 2 3 6 5 8 9 8 9 8 8 8 8 8 8 8 8 8 7 6 6 6 6 5 6 5 5 5 5
1 2 6 9 7 3 2 2 3 3 4 5 5 7 5 6 4 4 7 7 9 9 8 9 9 9 9 9 8 8 9 10 8 7 7 7 7 8 8 7 5 3 1 0
1 2 3 4 6 2 6 6 5 5 4 6 9 10 10 13 13 10 10 12 10 11 7 8 10 10 10 9 9 9 9 8 7 6 7 7 8 9 9 9 7 5 4 4
2 2 3 8 11 8 11 13 8 8 10 9 13 13 15 15 12 10 10 11 11 11 8 9 11 12 10 9 8 8 8 6 6 6 7 9 8 8 9 9 8 8 8 7
1 3 2 6 9 8 10 13 11 12 13 11 16 20 17 14 9 10 12 11 14 13 8 8 10 10 9 8 8 7 8 6 6 7 9 8 7 8 8 8 8 8 8 7
2 3 2 4 4 8 8 7 6 6 7 8 13 18 12 9 11 12 12 10 11 10 7 6 7 6 6 6 7 9 8 7 8 9 9 7 8 9 8 7 7 8 8 7
5 4 3 3 3 5 4 1 1 5 8 5 14 18 14 12 12 11 10 9 9 8 5 5 6 6 3 1 2 4 6 6 7 7 8 7 8 9 8 7 8 8 7 6
6 6 4 3 3 7 5 3 3 3 5 8 20 22 13 6 4 7 5 2 1 2 4 5 7 7 6 6 5 4 1 4 5 5 5 6 7 7 6 7 6 6 6 5
4 5 3 3 3 4 1 8 5 2 4 19 23 19 15 5 1 5 2 6 7 7 7 7 7 7 8 7 8 10 7 5 5 6 4 3 6 7 6 7 6 5 6 7
2 3 5 5 4 3 8 15 9 5 10 19 18 18 14 6 6 4 4 6 7 7 7 7 8 7 6 6 7 8 7 6 4 5 5 4 1 3 4 8 7 8 7 7
4 3 3 4 4 1 10 10 5 4 9 12 15 18 14 9 5 4 6 6 7 8 6 7 7 7 5 5 7 7 5 4 4 5 6 5 4 3 3 5 7 8 8 5
4 4 3 5 3 6 10 5 1 3 7 11 13 17 15 9 5 1 4 4 5 6 6 5 7 6 4 4 5 5 2 2 4 5 5 4 5 4 4 4 5 3 3 4
6 4 5 8 9 16 17 8 5 7 9 11 10 13 16 12 4 4 6 5 4 5 5 5 6 6 3 2 2 2 2 3 4 4 4 4 5 5 4 1 1 1 1 1
8 7 7 8 12 12 11 11 13 17 18 14 14 14 12 12 5 5 5 6 6 5 4 5 5 5 4 3 2 2 3 4 4 4 4 3 3 5 4 3 0 1 2 3
3 4 5 9 13 13 17 16 18 18 15 16 18 20 18 13 8 6 7 6 6 5 5 4 4 4 4 4 3 3 4 5 5 4 2 2 2 3 4 4 3 4 4 3
Wind_Direction
316 211 225 225 222 258 243 225 259 271 270 199 243 252 274 288 229 203 195 201 217 188 198 259 347 333 171 144 135 147 163 146 122 109 105 119 171 186 194 204 228 181 187 199
354 249 239 213 212 243 228 266 279 284 267 203 241 253 269 264 237 209 198 202 189 194 221 301 339 333 190 171 159 154 157 152 141 130 120 115 121 143 196 131 164 210 206 203
210 248 287 240 228 226 220 216 248 263 309 277 266 293 278 281 279 258 206 179 163 191 202 223 239 241 219 200 194 181 171 165 160 139 112 86 90 102 131 159 150 230 232 211
236 247 249 251 243 233 249 256 282 286 287 284 5 279 271 280 293 281 210 169 170 193 200 207 221 227 212 194 183 185 199 203 181 156 164 174 164 172 178 146 137 182 215 210
250 219 213 237 235 196 252 305 306 283 240 253 246 244 274 327 282 257 211 188 182 193 189 203 217 230 228 204 183 184 206 217 197 189 194 183 164 154 153 150 145 144 146 131
253 249 212 221 235 213 292 321 22 41 68 258 235 229 274 234 245 261 207 193 183 185 195 213 223 230 235 226 206 186 192 204 196 202 207 191 179 164 162 164 158 153 138 120
313 274 241 196 270 282 163 217 323 326 310 256 287 208 252 249 250 237 208 196 182 182 198 213 215 216 218 212 208 200 200 201 187 195 205 200 190 182 188 177 175 174 165 139
314 308 299 244 183 249 208 166 187 217 226 279 272 232 252 265 299 267 180 165 174 198 209 216 214 208 209 209 204 207 212 207 194 209 216 194 193 191 187 175 171 175 167 148
274 277 301 294 260 175 200 192 200 170 172 250 260 281 297 311 305 56 110 153 196 210 216 222 213 201 200 206 208 205 215 226 199 209 220 201 197 196 184 174 173 175 167 161
173 293 302 321 2 28 227 149 113 158 175 225 273 267 251 303 272 289 254 226 230 228 232 235 219 203 204 203 198 198 210 233 225 213 223 214 204 205 185 174 187 198 188 167
106 253 307 342 47 302 324 354 69 118 130 170 239 262 222 248 302 289 292 285 273 256 244 250 240 217 209 194 189 191 201 216 222 223 227 223 219 212 190 182 199 201 197 193
69 93 286 275 263 189 179 194 145 158 176 69 267 272 257 249 297 286 285 274 274 267 252 247 235 212 208 201 198 191 195 211 214 202 213 218 198 190 192 193 194 194 209 208
279 360 331 333 328 13 322 193 169 156 156 204 211 254 266 276 275 256 264 273 267 260 249 232 213 205 207 210 205 199 200 212 214 199 200 212 201 188 195 204 199 182 188 222
10 238 223 242 263 277 288 273 218 176 190 225 229 248 276 285 294 290 263 268 268 266 256 225 210 201 205 206 208 208 217 210 209 208 215 215 208 201 197 197 196 187 184 191
54 281 259 268 275 273 259 257 234 211 225 228 256 251 254 256 266 276 277 283 282 276 249 221 209 200 201 199 204 212 226 218 202 210 226 236 216 206 201 196 190 181 180 190
9 280 283 280 285 288 284 285 274 249 243 247 265 269 262 255 256 271 274 276 286 289 276 235 204 193 187 201 200 210 224 215 209 222 230 237 227 218 215 199 183 178 186 193
253 240 249 264 310 326 289 251 244 267 264 267 279 283 277 254 255 255 267 275 274 285 274 215 182 177 169 197 201 222 226 204 210 225 233 222 222 223 221 201 180 182 185 185
209 201 245 285 341 261 247 249 233 269 274 305 313 308 275 234 243 252 251 259 276 280 251 179 151 129 121 127 180 228 236 231 229 233 239 231 224 227 219 204 200 190 187 188
207 189 211 224 227 288 343 24 348 344 295 7 344 341 331 230 252 273 237 201 312 57 90 93 96 101 97 81 78 97 251 270 268 262 252 250 243 235 201 215 211 170 163 158
153 164 209 194 219 245 328 304 297 158 294 349 348 339 335 305 237 288 43 89 85 83 87 93 96 96 85 73 79 79 65 47 357 329 312 247 232 227 197 175 169 144 134 126
272 196 211 210 220 282 338 325 2 58 316 332 337 334 329 304 293 306 78 92 94 87 85 85 82 83 88 97 94 84 74 59 37 31 46 63 155 204 173 151 149 146 136 127
309 297 257 214 206 240 0 1 26 327 305 321 335 341 324 313 335 37 80 95 102 99 90 89 97 100 96 88 88 82 63 28 41 61 68 75 93 113 140 144 148 151 143 147
349 13 300 295 290 353 334 297 262 271 314 334 332 336 336 341 349 67 111 117 115 114 116 113 116 108 85 77 98 109 102 48 58 64 66 76 74 86 125 146 150 153 160 153
326 5 315 300 312 324 310 303 315 311 333 332 326 323 345 335 314 231 155 156 143 140 132 129 123 123 138 158 121 138 154 103 73 63 61 76 85 83 71 96 154 131 21 348
279 285 276 272 290 311 287 320 336 332 338 340 330 327 332 331 294 237 201 176 170 154 139 143 148 161 181 183 200 193 165 140 110 97 84 67 81 105 96 66 348 203 249 264
257 282 308 303 316 313 299 312 320 317 330 332 329 331 335 327 285 218 214 188 169 160 157 163 180 202 215 224 256 240 175 151 128 117 108 94 91 96 112 110 79 48 41 33
Height
1498 1503 1505 1501 1501 1500 1500 1502 1503 1496 1485 1488 1489 1488 1480 1476 1477 1477 1477 1477 1479 1481 1484 1486 1487 1488 1489 1489 1489 1491 1494 1501 1504 1506 1507 1508 1511 1514 1516 1518 1520 1524 1527 1529
1502 1504 1497 1495 1496 1497 1500 1504 1503 1493 1483 1487 1486 1485 1477 1474 1473 1472 1473 1474 1477 1481 1483 1484 1485 1485 1486 1487 1488 1489 1492 1497 1499 1502 1504 1505 1508 1510 1513 1514 1516 1520 1522 1524
1500 1495 1493 1493 1494 1497 1496 1499 1497 1496 1485 1483 1485 1488 1480 1472 1471 1470 1471 1472 1475 1480 1481 1482 1483 1483 1485 1486 1487 1488 1491 1495 1497 1499 1501 1502 1504 1506 1509 1510 1511 1514 1517 1519
1499 1491 1492 1492 1492 1491 1498 1487 1488 1489 1495 1499 1492 1505 1486 1477 1474 1469 1469 1469 1472 1477 1479 1481 1482 1483 1484 1485 1485 1486 1488 1491 1494 1497 1498 1499 1501 1503 1504 1505 1506 1508 1511 1514
1495 1489 1490 1492 1489 1488 1490 1485 1488 1489 1494 1498 1495 1502 1489 1478 1475 1468 1467 1467 1470 1475 1477 1480 1481 1482 1484 1484 1484 1484 1486 1488 1490 1492 1494 1495 1496 1498 1499 1500 1501 1503 1505 1507
1489 1484 1484 1484 1481 1483 1483 1486 1490 1497 1502 1511 1498 1499 1495 1480 1471 1467 1465 1466 1469 1474 1477 1478 1479 1480 1482 1483 1484 1484 1485 1487 1487 1489 1491 1492 1493 1494 1494 1495 1496 1497 1498 1500
1493 1484 1477 1476 1481 1480 1484 1495 1511 1511 1512 1510 1499 1501 1490 1467 1464 1464 1464 1465 1468 1472 1474 1475 1476 1477 1479 1480 1482 1483 1485 1486 1486 1487 1489 1490 1490 1490 1491 1492 1493 1493 1494 1494
1506 1506 1481 1478 1480 1484 1485 1493 1511 1519 1518 1512 1498 1500 1479 1463 1460 1460 1461 1464 1468 1470 1471 1472 1473 1475 1477 1479 1480 1481 1483 1484 1485 1486 1487 1487 1487 1487 1487 1488 1489 1491 1491 1490
1505 1499 1480 1476 1474 1477 1490 1489 1484 1499 1508 1514 1500 1487 1470 1462 1461 1462 1462 1464 1466 1467 1468 1470 1471 1473 1476 1478 1479 1480 1481 1482 1482 1483 1484 1485 1485 1485 1485 1486 1487 1488 1489 1489
1500 1506 1486 1477 1472 1474 1480 1481 1498 1497 1513 1519 1504 1500 1488 1471 1467 1464 1464 1465 1465 1465 1467 1468 1469 1472 1473 1474 1475 1477 1479 1480 1481 1481 1483 1484 1484 1484 1484 1485 1486 1488 1489 1490
1500 1504 1495 1487 1489 1492 1488 1487 1491 1499 1505 1513 1515 1503 1478 1473 1470 1468 1466 1465 1464 1463 1464 1466 1467 1470 1471 1471 1473 1475 1477 1478 1479 1479 1481 1482 1483 1483 1484 1485 1486 1488 1490 1491
1499 1505 1504 1495 1486 1485 1490 1494 1497 1505 1508 1512 1515 1504 1469 1467 1466 1466 1464 1463 1463 1462 1462 1464 1465 1467 1468 1469 1471 1473 1475 1476 1477 1477 1478 1479 1481 1482 1483 1485 1486 1488 1491 1492
1498 1504 1508 1500 1498 1489 1490 1489 1492 1497 1501 1503 1508 1498 1466 1465 1461 1461 1462 1460 1461 1458 1457 1458 1459 1461 1464 1467 1468 1471 1472 1473 1475 1475 1475 1476 1478 1479 1481 1483 1485 1487 1489 1491
1497 1503 1505 1507 1501 1494 1495 1488 1489 1494 1502 1497 1494 1482 1469 1463 1459 1456 1458 1457 1456 1453 1451 1451 1452 1455 1460 1463 1465 1467 1469 1470 1472 1473 1473 1474 1475 1477 1479 1480 1482 1485 1487 1489
1497 1502 1500 1495 1490 1490 1488 1485 1485 1491 1486 1490 1475 1474 1466 1461 1456 1454 1453 1451 1450 1447 1445 1445 1446 1449 1455 1458 1461 1463 1465 1467 1469 1470 1470 1470 1472 1474 1475 1477 1479 1481 1484 1487
1498 1500 1498 1496 1488 1486 1483 1477 1477 1478 1476 1476 1471 1462 1455 1453 1452 1450 1448 1446 1444 1441 1440 1440 1442 1445 1450 1454 1457 1460 1462 1464 1465 1466 1466 1468 1469 1470 1472 1474 1476 1478 1481 1483
1499 1500 1502 1502 1491 1490 1488 1474 1472 1471 1469 1470 1468 1456 1450 1451 1448 1445 1443 1442 1441 1439 1438 1437 1439 1443 1448 1452 1455 1457 1459 1460 1461 1462 1463 1464 1466 1466 1468 1471 1473 1476 1478 1480
1496 1498 1499 1498 1496 1501 1475 1466 1466 1467 1463 1461 1459 1450 1442 1442 1440 1439 1439 1438 1436 1436 1435 1435 1437 1442 1447 1450 1451 1453 1454 1455 1456 1457 1459 1461 1462 1463 1465 1467 1469 1471 1473 1475
1491 1495 1498 1501 1498 1485 1471 1466 1467 1469 1462 1458 1455 1444 1436 1436 1437 1435 1434 1434 1434 1433 1433 1435 1438 1442 1445 1447 1449 1450 1451 1451 1452 1452 1453 1455 1456 1457 1459 1461 1463 1465 1467 1469
1488 1490 1495 1496 1497 1491 1477 1467 1463 1468 1469 1459 1455 1449 1445 1439 1441 1437 1433 1433 1434 1435 1437 1439 1441 1443 1446 1448 1449 1450 1450 1450 1449 1448 1447 1448 1449 1451 1453 1454 1457 1459 1462 1464
1492 1490 1493 1492 1491 1483 1477 1466 1462 1481 1482 1466 1460 1453 1447 1446 1443 1438 1434 1434 1436 1439 1440 1442 1443 1445 1447 1448 1449 1450 1449 1449 1448 1447 1446 1445 1445 1446 1448 1448 1450 1454 1458 1461
1494 1492 1490 1488 1487 1492 1477 1473 1479 1483 1476 1469 1460 1454 1446 1442 1439 1436 1436 1437 1439 1441 1443 1444 1445 1446 1447 1449 1450 1450 1450 1450 1449 1447 1446 1445 1445 1444 1445 1446 1448 1450 1454 1457
1500 1499 1500 1492 1486 1481 1479 1478 1478 1476 1472 1467 1461 1455 1448 1443 1442 1440 1440 1441 1442 1443 1444 1445 1446 1448 1449 1451 1451 1452 1452 1451 1450 1448 1447 1446 1445 1444 1444 1446 1448 1450 1453 1456
1499 1499 1500 1494 1482 1480 1477 1476 1473 1471 1468 1464 1462 1457 1449 1445 1443 1443 1441 1443 1444 1445 1445 1446 1448 1450 1452 1452 1453 1453 1453 1453 1451 1449 1448 1447 1446 1446 1445 1445 1447 1451 1454 1455
1501 1499 1495 1489 1482 1476 1471 1471 1470 1465 1462 1460 1459 1455 1449 1445 1442 1443 1443 1444 1445 1446 1446 1448 1449 1451 1452 1453 1453 1453 1453 1453 1452 1450 1449 1448 1448 1448 1447 1447 1449 1452 1455 1455
1496 1497 1495 1489 1484 1482 1475 1471 1469 1465 1462 1459 1455 1448 1446 1443 1441 1441 1443 1444 1445 1446 1447 1448 1450 1451 1452 1453 1453 1453 1452 1452 1452 1451 1450 1450 1449 1450 1450 1450 1452 1453 1454 1455